Location: 3 Angels Observatory
(30.5437°N, 88.5068°W)
Time: 16:27:44
(UTC-05:00)

Oscar 19 - Visible Passes

Search period start: 26 April 2017 00:00
Search period end: 06 May 2017 00:00
Orbit: 774 x 790 km, 98.6° (Epoch: 25 April)

Date Brightness Start Highest point End Pass type
(mag) Time Alt. Az. Time Alt. Az. Time Alt. Az.
26 Apr 13.4 01:51:36 10° NNE 01:52:13 13° NNE 01:52:13 13° NNE visible
26 Apr 13.0 03:31:51 10° NNW 03:32:47 13° NNW 03:32:47 13° NNW visible
27 Apr 12.8 02:59:03 10° N 03:00:39 19° NNW 03:00:39 19° NNW visible
28 Apr 12.9 02:26:57 10° NNE 02:28:32 20° N 02:28:32 20° N visible
29 Apr 13.3 01:55:24 10° NNE 01:56:24 16° NNE 01:56:24 16° NNE visible
29 Apr 12.9 03:35:55 10° NNW 03:36:58 13° NW 03:36:58 13° NW visible
30 Apr 12.7 03:02:59 10° N 03:04:50 20° NNW 03:04:50 20° NNW visible
01 May 12.7 02:30:50 10° N 02:32:42 23° N 02:32:42 23° N visible
02 May 13.1 01:59:12 10° NNE 02:00:35 18° NNE 02:00:35 18° NNE visible
02 May 12.9 03:40:01 10° NNW 03:41:08 13° NW 03:41:08 13° NW visible
03 May 13.5 01:28:17 10° NE 01:28:26 11° NE 01:28:26 11° NE visible
03 May 12.5 03:06:57 10° N 03:09:00 21° NNW 03:09:00 21° NNW visible
04 May 12.5 02:34:43 10° N 02:36:52 25° N 02:36:52 25° N visible
05 May 12.9 02:03:01 10° NNE 02:04:44 21° NNE 02:04:44 21° NNE visible
05 May 12.9 03:44:08 10° NW 03:45:17 13° NW 03:45:17 13° NW visible
